Change the Weather History Date:

Wednesday, October 10, 2012

  Actual Average (KPVU) Record (KPVU)
Temperature  
Mean Temperature 52 °F -  
Max Temperature 73 °F 65 °F 86 °F (1996)
Min Temperature 32 °F 37 °F 29 °F (1982)
Degree Days  
Heating Degree Days 12    
Growing Degree Days 2 (Base 50)    
Moisture  
Dew Point 31 °F    
Average Humidity 51    
Maximum Humidity 81    
Minimum Humidity 20    
Precipitation  
Precipitation 0.00 in - - ()
Sea Level Pressure  
Sea Level Pressure 30.10 in    
Wind  
Wind Speed 3 mph (SSW)    
Max Wind Speed 21 mph    
Max Gust Speed 31 mph    
Visibility 10 miles    
Events      
Averages and records for this station are not official NWS values.
T = Trace of Precipitation, MM = Missing Value Source: NWS Daily Summary

Daily Weather History Graph

Daily Weather History Graph

Search for Another Location

Airport or City:

Trip Planner

Search our weather history database for the weather conditions in past years. The results will help you decide how hot, cold, wet, or windy it might be!

Date:

Astronomy

Oct. 10, 2012 Rise Set
Actual Time 7:31 AM MDT 6:52 PM MDT
Civil Twilight 7:04 AM MDT 7:19 PM MDT
Nautical Twilight 6:33 AM MDT 7:51 PM MDT
Astronomical Twilight 6:01 AM MDT 8:22 PM MDT
Moon 2:10 AM MDT (10/10) 3:58 PM MDT (10/10)
Length of Visible Light 12h 15m
Length of Day
11h 20m
Waning Crescent, 26% of the Moon is Illuminated
Oct 10
Waning Crescent
Oct 15
New
Oct 21
First Quarter
Oct 29
Full
Nov 6
Last Quarter

Hourly Weather History & Observations

Time (MDT) Temp. Windchill Dew Point Humidity Pressure Visibility Wind Dir Wind Speed Gust Speed Precip Events Conditions
12:15 AM 42.8 °F 41.1 °F 24.8 °F 49% 30.12 in 10.0 mi ESE 3.5 mph - N/A   Clear
12:35 AM 37.4 °F 34.9 °F 26.6 °F 65% 30.12 in 10.0 mi ESE 3.5 mph - N/A   Clear
12:55 AM 35.6 °F - 26.6 °F 70% 30.12 in 10.0 mi Calm Calm - N/A   Clear
1:35 AM 35.6 °F - 26.6 °F 70% 30.13 in 10.0 mi Calm Calm - N/A   Clear
1:55 AM 33.8 °F - 26.6 °F 75% 30.13 in 10.0 mi Calm Calm - N/A   Clear
2:55 AM 33.8 °F - 28.4 °F 81% 30.14 in 10.0 mi Calm Calm - N/A   Clear
3:15 AM 35.6 °F - 28.4 °F 75% 30.14 in 10.0 mi Calm Calm - N/A   Clear
3:35 AM 37.4 °F - 28.4 °F 70% 30.14 in 10.0 mi Calm Calm - N/A   Clear
3:55 AM 37.4 °F - 26.6 °F 65% 30.14 in 10.0 mi Calm Calm - N/A   Clear
4:15 AM 35.6 °F - 28.4 °F 75% 30.14 in 10.0 mi Calm Calm - N/A   Clear
4:35 AM 33.8 °F - 26.6 °F 75% 30.13 in 10.0 mi Calm Calm - N/A   Clear
4:55 AM 32.0 °F - 26.6 °F 80% 30.14 in 10.0 mi Calm Calm - N/A   Clear
5:15 AM 32.0 °F - 26.6 °F 80% 30.14 in 10.0 mi Calm Calm - N/A   Clear
5:35 AM 32.0 °F - 26.6 °F 80% 30.14 in 10.0 mi Calm Calm - N/A   Clear
5:55 AM 32.0 °F - 26.6 °F 80% 30.14 in 10.0 mi Calm Calm - N/A   Clear
6:15 AM 32.0 °F - 26.6 °F 80% 30.15 in 10.0 mi Calm Calm - N/A   Clear
6:35 AM 32.0 °F - 26.6 °F 80% 30.15 in 10.0 mi Calm Calm - N/A   Clear
6:55 AM 32.0 °F - 26.6 °F 80% 30.15 in 10.0 mi Calm Calm - N/A   Clear
7:15 AM 32.0 °F - 26.6 °F 80% 30.15 in 10.0 mi Calm Calm - N/A   Clear
7:35 AM 32.0 °F - 26.6 °F 80% 30.15 in 10.0 mi Calm Calm - N/A   Clear
7:55 AM 32.0 °F - 26.6 °F 80% 30.15 in 10.0 mi Calm Calm - N/A   Clear
8:15 AM 32.0 °F - 26.6 °F 80% 30.15 in 2.5 mi Calm Calm - N/A   Haze
8:35 AM 33.8 °F - 28.4 °F 81% 30.16 in 10.0 mi Calm Calm - N/A   Clear
9:15 AM 41.0 °F - 30.2 °F 65% 30.16 in 10.0 mi Calm Calm - N/A   Clear
9:35 AM 42.8 °F - 30.2 °F 61% 30.16 in 10.0 mi Calm Calm - N/A   Clear
9:55 AM 42.8 °F - 30.2 °F 61% 30.16 in 10.0 mi Calm Calm - N/A   Clear
10:15 AM 44.6 °F - 30.2 °F 57% 30.15 in 10.0 mi Calm Calm - N/A   Clear
10:35 AM 50.0 °F - 28.4 °F 43% 30.15 in 10.0 mi Calm Calm - N/A   Clear
11:15 AM 53.6 °F - 28.4 °F 38% 30.14 in 10.0 mi Calm Calm - N/A   Clear
11:35 AM 55.4 °F - 26.6 °F 33% 30.12 in 10.0 mi Calm Calm - N/A   Clear
11:55 AM 59.0 °F - 26.6 °F 29% 30.12 in 10.0 mi Calm Calm - N/A   Clear
12:15 PM 60.8 °F - 26.6 °F 27% 30.11 in 10.0 mi Calm Calm - N/A   Scattered Clouds
12:35 PM 62.6 °F - 32.0 °F 32% 30.10 in 10.0 mi Calm Calm - N/A   Scattered Clouds
12:55 PM 71.6 °F - 32.0 °F 23% 30.10 in 10.0 mi SW 11.5 mph 18.4 mph N/A   Scattered Clouds
1:15 PM 69.8 °F - 32.0 °F 25% 30.09 in 10.0 mi SW 11.5 mph - N/A   Scattered Clouds
1:35 PM 69.8 °F - 30.2 °F 23% 30.08 in 10.0 mi SW 12.7 mph 16.1 mph N/A   Scattered Clouds
1:55 PM 69.8 °F - 30.2 °F 23% 30.07 in 10.0 mi SW 12.7 mph 16.1 mph N/A   Mostly Cloudy
2:15 PM 73.4 °F - 30.2 °F 20% 30.05 in 10.0 mi WSW 11.5 mph - N/A   Scattered Clouds
2:35 PM 71.6 °F - 32.0 °F 23% 30.05 in 10.0 mi SW 15.0 mph 18.4 mph N/A   Scattered Clouds
2:55 PM 73.4 °F - 33.8 °F 23% 30.04 in 10.0 mi SW 13.8 mph 19.6 mph N/A   Clear
3:15 PM 73.4 °F - 33.8 °F 23% 30.03 in 10.0 mi SSW 12.7 mph 19.6 mph N/A   Clear
3:35 PM 71.6 °F - 32.0 °F 23% 30.03 in 10.0 mi SSW 11.5 mph - N/A   Clear
3:55 PM 73.4 °F - 32.0 °F 22% 30.02 in 10.0 mi SW 15.0 mph 18.4 mph N/A   Clear
4:35 PM 73.4 °F - 32.0 °F 22% 30.01 in 10.0 mi SW 13.8 mph 18.4 mph N/A   Clear
5:15 PM 71.6 °F - 32.0 °F 23% 30.01 in 10.0 mi SW 12.7 mph 18.4 mph N/A   Clear
5:35 PM 71.6 °F - 32.0 °F 23% 30.00 in 10.0 mi SW 10.4 mph - N/A   Clear
5:55 PM 69.8 °F - 32.0 °F 25% 30.00 in 10.0 mi WSW 8.1 mph - N/A   Clear
6:15 PM 68.0 °F - 33.8 °F 28% 30.00 in 10.0 mi SW 4.6 mph - N/A   Clear
6:35 PM 66.2 °F - 33.8 °F 30% 30.00 in 10.0 mi SSW 3.5 mph - N/A   Clear
7:15 PM 60.8 °F - 32.0 °F 34% 30.01 in 10.0 mi Calm Calm - N/A   Clear
7:55 PM 55.4 °F - 33.8 °F 44% 30.02 in 10.0 mi ENE 3.5 mph - N/A   Mostly Cloudy
8:15 PM 55.4 °F - 35.6 °F 47% 30.02 in 10.0 mi Calm Calm - N/A   Mostly Cloudy
8:35 PM 53.6 °F - 37.4 °F 54% 30.05 in 10.0 mi SW 16.1 mph - N/A   Overcast
9:15 PM 60.8 °F - 39.2 °F 45% 30.06 in 10.0 mi SW 20.7 mph 31.1 mph N/A   Overcast
9:35 PM 60.8 °F - 37.4 °F 42% 30.07 in 10.0 mi SSW 15.0 mph 18.4 mph N/A   Overcast
9:55 PM 60.8 °F - 37.4 °F 42% 30.07 in 10.0 mi SW 13.8 mph - N/A   Mostly Cloudy
10:35 PM 60.8 °F - 37.4 °F 42% 30.07 in 10.0 mi SSE 13.8 mph 19.6 mph N/A   Overcast
10:55 PM 59.0 °F - 37.4 °F 45% 30.07 in 10.0 mi South 3.5 mph - N/A   Overcast
11:15 PM 59.0 °F - 37.4 °F 45% 30.07 in 10.0 mi SE 3.5 mph - N/A   Mostly Cloudy
11:35 PM 59.0 °F - 41.0 °F 51% 30.07 in 10.0 mi NNW 5.8 mph - N/A   Light Drizzle
11:55 PM 55.4 °F - 42.8 °F 63% 30.06 in 10.0 mi East 3.5 mph - N/A   Overcast